owner,sensor,date,latitude,longitude,vertical_datum,sea_water_practical_salinity,qcFlag 
SCCF RECON,ioos:station:SCCF:11:1,2013-08-01T00:00:00Z,26.4679,-82.0631,1.79,18.43,1111122 
SCCF RECON,ioos:station:SCCF:11:1,2013-08-01T01:00:00Z,26.4679,-82.0631,1.86,16.29,1111122 
SCCF RECON,ioos:station:SCCF:11:1,2013-08-01T02:00:00Z,26.4679,-82.0631,1.91,17.78,1111122 
SCCF RECON,ioos:station:SCCF:11:1,2013-08-01T03:00:00Z,26.4679,-82.0631,1.94,19.46,1111122 
SCCF RECON,ioos:station:SCCF:11:1,2013-08-01T04:00:00Z,26.4679,-82.0631,1.94,21.18,1111122 
SCCF RECON,ioos:station:SCCF:11:1,2013-08-01T05:00:00Z,26.4679,-82.0631,1.92,21.21,1111122 
SCCF RECON,ioos:station:SCCF:11:1,2013-08-01T06:00:00Z,26.4679,-82.0631,1.864,19.48,1111122 
SCCF RECON,ioos:station:SCCF:11:1,2013-08-01T07:00:00Z,26.4679,-82.0631,1.8,18.43,1111122 
SCCF RECON,ioos:station:SCCF:11:1,2013-08-01T08:00:00Z,26.4679,-82.0631,1.77,18.56,1111122 
SCCF RECON,ioos:station:SCCF:11:1,2013-08-01T09:00:00Z,26.4679,-82.0631,1.81,18.99,1111122 
SCCF RECON,ioos:station:SCCF:11:1,2013-08-01T10:00:00Z,26.4679,-82.0631,1.92,17.8,1111122 
SCCF RECON,ioos:station:SCCF:11:1,2013-08-01T11:00:00Z,26.4679,-82.0631,2.03,20.64,1111122 
SCCF RECON,ioos:station:SCCF:11:1,2013-08-01T12:00:00Z,26.4679,-82.0631,2.107,22.37,1111122 
SCCF RECON,ioos:station:SCCF:11:1,2013-08-01T13:00:00Z,26.4679,-82.0631,2.16,20.57,1111122 
SCCF RECON,ioos:station:SCCF:11:1,2013-08-01T14:00:00Z,26.4679,-82.0631,2.14,22.76,1111122 
SCCF RECON,ioos:station:SCCF:11:1,2013-08-01T15:00:00Z,26.4679,-82.0631,2.09,22.85,1111122 
SCCF RECON,ioos:station:SCCF:11:1,2013-08-01T16:00:00Z,26.4679,-82.0631,1.998,19.48,1111122 
SCCF RECON,ioos:station:SCCF:11:1,2013-08-01T17:00:00Z,26.4679,-82.0631,1.866,18.1,1111122 
SCCF RECON,ioos:station:SCCF:11:1,2013-08-01T18:00:00Z,26.4679,-82.0631,1.75,18.3,1111122 
SCCF RECON,ioos:station:SCCF:11:1,2013-08-01T19:00:00Z,26.4679,-82.0631,1.64,18.34,1111122 
SCCF RECON,ioos:station:SCCF:11:1,2013-08-01T20:00:00Z,26.4679,-82.0631,1.537,18.47,1111122 
SCCF RECON,ioos:station:SCCF:11:1,2013-08-01T21:00:00Z,26.4679,-82.0631,1.48,18.53,1111122 
SCCF RECON,ioos:station:SCCF:11:1,2013-08-01T22:00:00Z,26.4679,-82.0631,1.47,18.2,1111122 
SCCF RECON,ioos:station:SCCF:11:1,2013-08-01T23:00:00Z,26.4679,-82.0631,1.599,19.41,1111122 
SCCF RECON,ioos:station:SCCF:11:1,2013-08-02T00:00:00Z,26.4679,-82.0631,1.71,19.9,1111122 
SCCF RECON,ioos:station:SCCF:11:1,2013-08-02T01:00:00Z,26.4679,-82.0631,1.8,15.88,1111122 
SCCF RECON,ioos:station:SCCF:11:1,2013-08-02T02:00:00Z,26.4679,-82.0631,1.88,14.44,1111122 
SCCF RECON,ioos:station:SCCF:11:1,2013-08-02T03:00:00Z,26.4679,-82.0631,1.94,14.26,1111122 
SCCF RECON,ioos:station:SCCF:11:1,2013-08-02T04:00:00Z,26.4679,-82.0631,1.94,17.44,1111122 
SCCF RECON,ioos:station:SCCF:11:1,2013-08-02T05:00:00Z,26.4679,-82.0631,1.9,18.05,1111122 
SCCF RECON,ioos:station:SCCF:11:1,2013-08-02T06:00:00Z,26.4679,-82.0631,1.9,18.44,1111122 
SCCF RECON,ioos:station:SCCF:11:1,2013-08-02T07:00:00Z,26.4679,-82.0631,1.84,18.72,1111122 
SCCF RECON,ioos:station:SCCF:11:1,2013-08-02T08:00:00Z,26.4679,-82.0631,1.84,18.63,1111122 
SCCF RECON,ioos:station:SCCF:11:1,2013-08-02T09:00:00Z,26.4679,-82.0631,1.84,18.04,1111122 
SCCF RECON,ioos:station:SCCF:11:1,2013-08-02T10:00:00Z,26.4679,-82.0631,1.87,18.06,1111122 
SCCF RECON,ioos:station:SCCF:11:1,2013-08-02T11:00:00Z,26.4679,-82.0631,1.96,16.56,1111122 
SCCF RECON,ioos:station:SCCF:11:1,2013-08-02T12:00:00Z,26.4679,-82.0631,2.02,20.58,1111122 
SCCF RECON,ioos:station:SCCF:11:1,2013-08-02T13:00:00Z,26.4679,-82.0631,2.09,22.49,1111122 
SCCF RECON,ioos:station:SCCF:11:1,2013-08-02T14:00:00Z,26.4679,-82.0631,2.138,22.85,1111122 
SCCF RECON,ioos:station:SCCF:11:1,2013-08-02T15:00:00Z,26.4679,-82.0631,2.16,23.26,1111122 
SCCF RECON,ioos:station:SCCF:11:1,2013-08-02T16:00:00Z,26.4679,-82.0631,2.12,24.05,1111122 
SCCF RECON,ioos:station:SCCF:11:1,2013-08-02T17:00:00Z,26.4679,-82.0631,2.03,18.28,1111122 
SCCF RECON,ioos:station:SCCF:11:1,2013-08-02T18:00:00Z,26.4679,-82.0631,1.89,17.29,1111122 
SCCF RECON,ioos:station:SCCF:11:1,2013-08-02T19:00:00Z,26.4679,-82.0631,1.73,17.99,1111122 
SCCF RECON,ioos:station:SCCF:11:1,2013-08-02T20:00:00Z,26.4679,-82.0631,1.59,18.27,1111122 
SCCF RECON,ioos:station:SCCF:11:1,2013-08-02T21:00:00Z,26.4679,-82.0631,1.475,18.34,1111122 
SCCF RECON,ioos:station:SCCF:11:1,2013-08-02T22:00:00Z,26.4679,-82.0631,1.43,18.04,1111122 
SCCF RECON,ioos:station:SCCF:11:1,2013-08-02T23:00:00Z,26.4679,-82.0631,1.47,17.75,1111122 
SCCF RECON,ioos:station:SCCF:11:1,2013-08-03T00:00:00Z,26.4679,-82.0631,1.61,19.73,1111122 
SCCF RECON,ioos:station:SCCF:11:1,2013-08-03T01:00:00Z,26.4679,-82.0631,1.76,18.13,1111122 
SCCF RECON,ioos:station:SCCF:11:1,2013-08-03T02:00:00Z,26.4679,-82.0631,1.849,15.88,1111122 
SCCF RECON,ioos:station:SCCF:11:1,2013-08-03T03:00:00Z,26.4679,-82.0631,1.915,15.01,1111122 
SCCF RECON,ioos:station:SCCF:11:1,2013-08-03T04:00:00Z,26.4679,-82.0631,1.98,16.6,1111122 
SCCF RECON,ioos:station:SCCF:11:1,2013-08-03T05:00:00Z,26.4679,-82.0631,2.0,18.87,1111122 
SCCF RECON,ioos:station:SCCF:11:1,2013-08-03T06:00:00Z,26.4679,-82.0631,1.99,20.45,1111122 
SCCF RECON,ioos:station:SCCF:11:1,2013-08-03T07:00:00Z,26.4679,-82.0631,1.95,21.13,1111122 
SCCF RECON,ioos:station:SCCF:11:1,2013-08-03T08:00:00Z,26.4679,-82.0631,1.91,21.56,1111122 
SCCF RECON,ioos:station:SCCF:11:1,2013-08-03T09:00:00Z,26.4679,-82.0631,1.861,18.34,1111122 
SCCF RECON,ioos:station:SCCF:11:1,2013-08-03T10:00:00Z,26.4679,-82.0631,1.84,17.88,1111122 
SCCF RECON,ioos:station:SCCF:11:1,2013-08-03T11:00:00Z,26.4679,-82.0631,1.9,18.04,1111122 
SCCF RECON,ioos:station:SCCF:11:1,2013-08-03T12:00:00Z,26.4679,-82.0631,1.998,18.88,1111122 
SCCF RECON,ioos:station:SCCF:11:1,2013-08-03T13:00:00Z,26.4679,-82.0631,2.08,20.07,1111122 
SCCF RECON,ioos:station:SCCF:11:1,2013-08-03T14:00:00Z,26.4679,-82.0631,2.163,20.0,1111122 
SCCF RECON,ioos:station:SCCF:11:1,2013-08-03T15:00:00Z,26.4679,-82.0631,2.19,22.16,1111122 
SCCF RECON,ioos:station:SCCF:11:1,2013-08-03T16:00:00Z,26.4679,-82.0631,2.179,23.32,1111122 
SCCF RECON,ioos:station:SCCF:11:1,2013-08-03T17:00:00Z,26.4679,-82.0631,2.1,20.52,1111122 
SCCF RECON,ioos:station:SCCF:11:1,2013-08-03T18:00:00Z,26.4679,-82.0631,1.96,17.93,1111122 
SCCF RECON,ioos:station:SCCF:11:1,2013-08-03T19:00:00Z,26.4679,-82.0631,1.832,18.05,1111122 
SCCF RECON,ioos:station:SCCF:11:1,2013-08-03T20:00:00Z,26.4679,-82.0631,1.676,18.16,1111122 
SCCF RECON,ioos:station:SCCF:11:1,2013-08-03T21:00:00Z,26.4679,-82.0631,1.53,18.18,1111122 
SCCF RECON,ioos:station:SCCF:11:1,2013-08-03T22:00:00Z,26.4679,-82.0631,1.465,18.24,1111122 
SCCF RECON,ioos:station:SCCF:11:1,2013-08-03T23:00:00Z,26.4679,-82.0631,1.393,18.36,1111122 
SCCF RECON,ioos:station:SCCF:11:1,2013-08-04T00:00:00Z,26.4679,-82.0631,1.47,18.77,1111122 
SCCF RECON,ioos:station:SCCF:11:1,2013-08-04T01:00:00Z,26.4679,-82.0631,1.62,19.37,1111122 
SCCF RECON,ioos:station:SCCF:11:1,2013-08-04T02:00:00Z,26.4679,-82.0631,1.77,15.05,1111122 
SCCF RECON,ioos:station:SCCF:11:1,2013-08-04T03:00:00Z,26.4679,-82.0631,1.86,14.0,1111122 
SCCF RECON,ioos:station:SCCF:11:1,2013-08-04T04:00:00Z,26.4679,-82.0631,1.93,15.25,1111122 
SCCF RECON,ioos:station:SCCF:11:1,2013-08-04T05:00:00Z,26.4679,-82.0631,1.99,16.01,1111122 
SCCF RECON,ioos:station:SCCF:11:1,2013-08-04T06:00:00Z,26.4679,-82.0631,1.98,18.41,1111122 
SCCF RECON,ioos:station:SCCF:11:1,2013-08-04T07:00:00Z,26.4679,-82.0631,1.94,20.36,1111122 
SCCF RECON,ioos:station:SCCF:11:1,2013-08-04T08:00:00Z,26.4679,-82.0631,1.88,18.43,1111122 
SCCF RECON,ioos:station:SCCF:11:1,2013-08-04T09:00:00Z,26.4679,-82.0631,1.787,16.1,1111122 
SCCF RECON,ioos:station:SCCF:11:1,2013-08-04T10:00:00Z,26.4679,-82.0631,1.71,17.1,1111122 
SCCF RECON,ioos:station:SCCF:11:1,2013-08-04T11:00:00Z,26.4679,-82.0631,1.78,16.89,1111122 
SCCF RECON,ioos:station:SCCF:11:1,2013-08-04T12:00:00Z,26.4679,-82.0631,1.897,15.33,1111122 
SCCF RECON,ioos:station:SCCF:11:1,2013-08-04T13:00:00Z,26.4679,-82.0631,2.0,17.92,1111122 
SCCF RECON,ioos:station:SCCF:11:1,2013-08-04T14:00:00Z,26.4679,-82.0631,2.09,18.59,1111122 
SCCF RECON,ioos:station:SCCF:11:1,2013-08-04T15:00:00Z,26.4679,-82.0631,2.17,20.89,1111122 
SCCF RECON,ioos:station:SCCF:11:1,2013-08-04T16:00:00Z,26.4679,-82.0631,2.179,21.22,1111122 
SCCF RECON,ioos:station:SCCF:11:1,2013-08-04T17:00:00Z,26.4679,-82.0631,2.12,19.69,1111122 
SCCF RECON,ioos:station:SCCF:11:1,2013-08-04T18:00:00Z,26.4679,-82.0631,2.048,17.42,1111122 
SCCF RECON,ioos:station:SCCF:11:1,2013-08-04T19:00:00Z,26.4679,-82.0631,1.92,16.7,1111122 
SCCF RECON,ioos:station:SCCF:11:1,2013-08-04T20:00:00Z,26.4679,-82.0631,1.75,17.32,1111122 
SCCF RECON,ioos:station:SCCF:11:1,2013-08-04T21:00:00Z,26.4679,-82.0631,1.59,17.4,1111122 
SCCF RECON,ioos:station:SCCF:11:1,2013-08-04T22:00:00Z,26.4679,-82.0631,1.49,17.57,1111122 
SCCF RECON,ioos:station:SCCF:11:1,2013-08-04T23:00:00Z,26.4679,-82.0631,1.4,17.65,1111122 
SCCF RECON,ioos:station:SCCF:11:1,2013-08-05T00:00:00Z,26.4679,-82.0631,1.41,17.71,1111122 
SCCF RECON,ioos:station:SCCF:11:1,2013-08-05T01:00:00Z,26.4679,-82.0631,1.54,18.16,1111122 
SCCF RECON,ioos:station:SCCF:11:1,2013-08-05T02:00:00Z,26.4679,-82.0631,1.7,21.11,1111122 
SCCF RECON,ioos:station:SCCF:11:1,2013-08-05T03:00:00Z,26.4679,-82.0631,1.835,18.82,1111122 
SCCF RECON,ioos:station:SCCF:11:1,2013-08-05T04:00:00Z,26.4679,-82.0631,1.94,15.05,1111122 
SCCF RECON,ioos:station:SCCF:11:1,2013-08-05T05:00:00Z,26.4679,-82.0631,2.01,18.15,1111122 
SCCF RECON,ioos:station:SCCF:11:1,2013-08-05T06:00:00Z,26.4679,-82.0631,2.02,18.73,1111122 
SCCF RECON,ioos:station:SCCF:11:1,2013-08-05T07:00:00Z,26.4679,-82.0631,1.98,19.38,1111122 
SCCF RECON,ioos:station:SCCF:11:1,2013-08-05T08:00:00Z,26.4679,-82.0631,1.89,17.07,1111122 
SCCF RECON,ioos:station:SCCF:11:1,2013-08-05T09:00:00Z,26.4679,-82.0631,1.82,16.86,1111122 
SCCF RECON,ioos:station:SCCF:11:1,2013-08-05T10:00:00Z,26.4679,-82.0631,1.78,16.95,1111122 
SCCF RECON,ioos:station:SCCF:11:1,2013-08-05T11:00:00Z,26.4679,-82.0631,1.74,17.12,1111122 
SCCF RECON,ioos:station:SCCF:11:1,2013-08-05T12:00:00Z,26.4679,-82.0631,1.79,16.49,1111122 
SCCF RECON,ioos:station:SCCF:11:1,2013-08-05T13:00:00Z,26.4679,-82.0631,1.92,16.24,1111122 
SCCF RECON,ioos:station:SCCF:11:1,2013-08-05T14:00:00Z,26.4679,-82.0631,2.02,16.69,1111122 
SCCF RECON,ioos:station:SCCF:11:1,2013-08-05T15:00:00Z,26.4679,-82.0631,2.11,18.14,1111122 
SCCF RECON,ioos:station:SCCF:11:1,2013-08-05T16:00:00Z,26.4679,-82.0631,2.18,19.22,1111122 
SCCF RECON,ioos:station:SCCF:11:1,2013-08-05T17:00:00Z,26.4679,-82.0631,2.19,20.43,1111122 
SCCF RECON,ioos:station:SCCF:11:1,2013-08-05T18:00:00Z,26.4679,-82.0631,2.11,18.36,1111122 
SCCF RECON,ioos:station:SCCF:11:1,2013-08-05T19:00:00Z,26.4679,-82.0631,1.953,17.22,1111122 
SCCF RECON,ioos:station:SCCF:11:1,2013-08-05T20:00:00Z,26.4679,-82.0631,1.79,17.51,1111122 
SCCF RECON,ioos:station:SCCF:11:1,2013-08-05T21:00:00Z,26.4679,-82.0631,1.65,17.69,1111122 
SCCF RECON,ioos:station:SCCF:11:1,2013-08-05T22:00:00Z,26.4679,-82.0631,1.5,17.92,1111122 
SCCF RECON,ioos:station:SCCF:11:1,2013-08-05T23:00:00Z,26.4679,-82.0631,1.4,18.02,1111122 
SCCF RECON,ioos:station:SCCF:11:1,2013-08-06T00:00:00Z,26.4679,-82.0631,1.36,18.07,1111122 
SCCF RECON,ioos:station:SCCF:11:1,2013-08-06T01:00:00Z,26.4679,-82.0631,1.42,18.12,1111122 
SCCF RECON,ioos:station:SCCF:11:1,2013-08-06T02:00:00Z,26.4679,-82.0631,1.56,19.2,1111122 
SCCF RECON,ioos:station:SCCF:11:1,2013-08-06T03:00:00Z,26.4679,-82.0631,1.73,20.58,1111122 
SCCF RECON,ioos:station:SCCF:11:1,2013-08-06T04:00:00Z,26.4679,-82.0631,1.86,15.69,1111122 
SCCF RECON,ioos:station:SCCF:11:1,2013-08-06T05:00:00Z,26.4679,-82.0631,1.93,15.72,1111122 
SCCF RECON,ioos:station:SCCF:11:1,2013-08-06T06:00:00Z,26.4679,-82.0631,1.98,18.17,1111122 
SCCF RECON,ioos:station:SCCF:11:1,2013-08-06T07:00:00Z,26.4679,-82.0631,1.96,19.36,1111122 
SCCF RECON,ioos:station:SCCF:11:1,2013-08-06T08:00:00Z,26.4679,-82.0631,1.86,17.53,1111122 
SCCF RECON,ioos:station:SCCF:11:1,2013-08-06T09:00:00Z,26.4679,-82.0631,1.79,16.14,1111122 
SCCF RECON,ioos:station:SCCF:11:1,2013-08-06T10:00:00Z,26.4679,-82.0631,1.72,18.1,1111122 
SCCF RECON,ioos:station:SCCF:11:1,2013-08-06T11:00:00Z,26.4679,-82.0631,1.66,16.91,1111122 
SCCF RECON,ioos:station:SCCF:11:1,2013-08-06T12:00:00Z,26.4679,-82.0631,1.68,17.74,1111122 
SCCF RECON,ioos:station:SCCF:11:1,2013-08-06T13:00:00Z,26.4679,-82.0631,1.78,15.69,1111122 
SCCF RECON,ioos:station:SCCF:11:1,2013-08-06T14:00:00Z,26.4679,-82.0631,1.91,15.59,1111122 
SCCF RECON,ioos:station:SCCF:11:1,2013-08-06T15:00:00Z,26.4679,-82.0631,2.05,15.93,1111122 
SCCF RECON,ioos:station:SCCF:11:1,2013-08-06T16:00:00Z,26.4679,-82.0631,2.14,20.29,1111122 
SCCF RECON,ioos:station:SCCF:11:1,2013-08-06T17:00:00Z,26.4679,-82.0631,2.17,19.68,1111122 
SCCF RECON,ioos:station:SCCF:11:1,2013-08-06T18:00:00Z,26.4679,-82.0631,2.15,21.45,1111122 
SCCF RECON,ioos:station:SCCF:11:1,2013-08-06T19:00:00Z,26.4679,-82.0631,2.07,19.45,1111122 
SCCF RECON,ioos:station:SCCF:11:1,2013-08-06T20:00:00Z,26.4679,-82.0631,1.94,16.6,1111122 
SCCF RECON,ioos:station:SCCF:11:1,2013-08-06T21:00:00Z,26.4679,-82.0631,1.78,17.25,1111122 
SCCF RECON,ioos:station:SCCF:11:1,2013-08-06T22:00:00Z,26.4679,-82.0631,1.62,17.64,1111122 
SCCF RECON,ioos:station:SCCF:11:1,2013-08-06T23:00:00Z,26.4679,-82.0631,1.497,17.76,1111122 
SCCF RECON,ioos:station:SCCF:11:1,2013-08-07T00:00:00Z,26.4679,-82.0631,1.41,17.88,1111122 
SCCF RECON,ioos:station:SCCF:11:1,2013-08-07T01:00:00Z,26.4679,-82.0631,1.4,17.31,1111122 
SCCF RECON,ioos:station:SCCF:11:1,2013-08-07T02:00:00Z,26.4679,-82.0631,1.515,17.76,1111122 
SCCF RECON,ioos:station:SCCF:11:1,2013-08-07T03:00:00Z,26.4679,-82.0631,1.692,19.27,1111122 
SCCF RECON,ioos:station:SCCF:11:1,2013-08-07T04:00:00Z,26.4679,-82.0631,1.85,16.44,1111122 
SCCF RECON,ioos:station:SCCF:11:1,2013-08-07T05:00:00Z,26.4679,-82.0631,1.96,15.63,1111122 
SCCF RECON,ioos:station:SCCF:11:1,2013-08-07T06:00:00Z,26.4679,-82.0631,2.03,18.1,1111122 
SCCF RECON,ioos:station:SCCF:11:1,2013-08-07T07:00:00Z,26.4679,-82.0631,2.01,20.43,1111122 
SCCF RECON,ioos:station:SCCF:11:1,2013-08-07T08:00:00Z,26.4679,-82.0631,1.92,18.17,1111122 
SCCF RECON,ioos:station:SCCF:11:1,2013-08-07T09:00:00Z,26.4679,-82.0631,1.81,16.93,1111122 
SCCF RECON,ioos:station:SCCF:11:1,2013-08-07T10:00:00Z,26.4679,-82.0631,1.73,17.75,1111122 
SCCF RECON,ioos:station:SCCF:11:1,2013-08-07T11:00:00Z,26.4679,-82.0631,1.67,17.82,1111122 
SCCF RECON,ioos:station:SCCF:11:1,2013-08-07T12:00:00Z,26.4679,-82.0631,1.64,17.84,1111122 
SCCF RECON,ioos:station:SCCF:11:1,2013-08-07T13:00:00Z,26.4679,-82.0631,1.68,17.92,1111122 
SCCF RECON,ioos:station:SCCF:11:1,2013-08-07T14:00:00Z,26.4679,-82.0631,1.79,18.83,1111122 
SCCF RECON,ioos:station:SCCF:11:1,2013-08-07T15:00:00Z,26.4679,-82.0631,1.95,16.35,1111122 
SCCF RECON,ioos:station:SCCF:11:1,2013-08-07T16:00:00Z,26.4679,-82.0631,2.07,21.25,1111122 
SCCF RECON,ioos:station:SCCF:11:1,2013-08-07T17:00:00Z,26.4679,-82.0631,2.14,21.21,1111122 
SCCF RECON,ioos:station:SCCF:11:1,2013-08-07T18:00:00Z,26.4679,-82.0631,2.18,22.9,1111122 
SCCF RECON,ioos:station:SCCF:11:1,2013-08-07T19:00:00Z,26.4679,-82.0631,2.14,25.0,1111122 
SCCF RECON,ioos:station:SCCF:11:1,2013-08-07T20:00:00Z,26.4679,-82.0631,2.02,21.34,1111122 
SCCF RECON,ioos:station:SCCF:11:1,2013-08-07T21:00:00Z,26.4679,-82.0631,1.85,18.56,1111122 
SCCF RECON,ioos:station:SCCF:11:1,2013-08-07T22:00:00Z,26.4679,-82.0631,1.695,18.44,1111122 
SCCF RECON,ioos:station:SCCF:11:1,2013-08-07T23:00:00Z,26.4679,-82.0631,1.588,18.58,1111122 
SCCF RECON,ioos:station:SCCF:11:1,2013-08-08T00:00:00Z,26.4679,-82.0631,1.45,18.59,1111122 
SCCF RECON,ioos:station:SCCF:11:1,2013-08-08T01:00:00Z,26.4679,-82.0631,1.4,18.65,1111122 
SCCF RECON,ioos:station:SCCF:11:1,2013-08-08T02:00:00Z,26.4679,-82.0631,1.486,19.23,1111122 
SCCF RECON,ioos:station:SCCF:11:1,2013-08-08T03:00:00Z,26.4679,-82.0631,1.67,19.81,1111122 
SCCF RECON,ioos:station:SCCF:11:1,2013-08-08T04:00:00Z,26.4679,-82.0631,1.83,15.68,1111122 
SCCF RECON,ioos:station:SCCF:11:1,2013-08-08T05:00:00Z,26.4679,-82.0631,1.94,17.46,1111122 
SCCF RECON,ioos:station:SCCF:11:1,2013-08-08T06:00:00Z,26.4679,-82.0631,2.02,20.1,1111122 
SCCF RECON,ioos:station:SCCF:11:1,2013-08-08T07:00:00Z,26.4679,-82.0631,2.05,21.59,1111122 
SCCF RECON,ioos:station:SCCF:11:1,2013-08-08T08:00:00Z,26.4679,-82.0631,2.05,22.36,1111122 
SCCF RECON,ioos:station:SCCF:11:1,2013-08-08T09:00:00Z,26.4679,-82.0631,1.94,19.04,1111122 
SCCF RECON,ioos:station:SCCF:11:1,2013-08-08T10:00:00Z,26.4679,-82.0631,1.83,18.8,1111122 
SCCF RECON,ioos:station:SCCF:11:1,2013-08-08T11:00:00Z,26.4679,-82.0631,1.739,18.69,1111122 
SCCF RECON,ioos:station:SCCF:11:1,2013-08-08T12:00:00Z,26.4679,-82.0631,1.65,18.77,1111122 
SCCF RECON,ioos:station:SCCF:11:1,2013-08-08T13:00:00Z,26.4679,-82.0631,1.66,18.64,1111122 
SCCF RECON,ioos:station:SCCF:11:1,2013-08-08T14:00:00Z,26.4679,-82.0631,1.77,21.78,1111122 
SCCF RECON,ioos:station:SCCF:11:1,2013-08-08T15:00:00Z,26.4679,-82.0631,1.94,18.06,1111122 
SCCF RECON,ioos:station:SCCF:11:1,2013-08-08T16:00:00Z,26.4679,-82.0631,2.08,20.98,1111122 
SCCF RECON,ioos:station:SCCF:11:1,2013-08-08T17:00:00Z,26.4679,-82.0631,2.179,24.28,1111122 
SCCF RECON,ioos:station:SCCF:11:1,2013-08-08T18:00:00Z,26.4679,-82.0631,2.22,24.7,1111122 
SCCF RECON,ioos:station:SCCF:11:1,2013-08-08T19:00:00Z,26.4679,-82.0631,2.24,25.85,1111122 
SCCF RECON,ioos:station:SCCF:11:1,2013-08-08T20:00:00Z,26.4679,-82.0631,2.171,28.11,1111122 
SCCF RECON,ioos:station:SCCF:11:1,2013-08-08T21:00:00Z,26.4679,-82.0631,2.07,27.35,1111122 
SCCF RECON,ioos:station:SCCF:11:1,2013-08-08T22:00:00Z,26.4679,-82.0631,1.91,19.43,1111122 
SCCF RECON,ioos:station:SCCF:11:1,2013-08-08T23:00:00Z,26.4679,-82.0631,1.74,18.87,1111122 
SCCF RECON,ioos:station:SCCF:11:1,2013-08-09T00:00:00Z,26.4679,-82.0631,1.65,18.92,1111122 
SCCF RECON,ioos:station:SCCF:11:1,2013-08-09T01:00:00Z,26.4679,-82.0631,1.53,18.67,1111122 
SCCF RECON,ioos:station:SCCF:11:1,2013-08-09T02:00:00Z,26.4679,-82.0631,1.539,20.12,1111122 
SCCF RECON,ioos:station:SCCF:11:1,2013-08-09T03:00:00Z,26.4679,-82.0631,1.629,20.65,1111122 
SCCF RECON,ioos:station:SCCF:11:1,2013-08-09T04:00:00Z,26.4679,-82.0631,1.82,21.47,1111122 
SCCF RECON,ioos:station:SCCF:11:1,2013-08-09T05:00:00Z,26.4679,-82.0631,1.94,16.4,1111122 
SCCF RECON,ioos:station:SCCF:11:1,2013-08-09T06:00:00Z,26.4679,-82.0631,2.03,18.25,1111122 
SCCF RECON,ioos:station:SCCF:11:1,2013-08-09T07:00:00Z,26.4679,-82.0631,2.086,19.25,1111122 
SCCF RECON,ioos:station:SCCF:11:1,2013-08-09T08:00:00Z,26.4679,-82.0631,2.08,22.29,1111122 
SCCF RECON,ioos:station:SCCF:11:1,2013-08-09T09:00:00Z,26.4679,-82.0631,2.0,20.35,1111122 
SCCF RECON,ioos:station:SCCF:11:1,2013-08-09T10:00:00Z,26.4679,-82.0631,1.89,19.27,1111122 
SCCF RECON,ioos:station:SCCF:11:1,2013-08-09T11:00:00Z,26.4679,-82.0631,1.81,19.37,1111122 
SCCF RECON,ioos:station:SCCF:11:1,2013-08-09T12:00:00Z,26.4679,-82.0631,1.69,19.43,1111122 
SCCF RECON,ioos:station:SCCF:11:1,2013-08-09T13:00:00Z,26.4679,-82.0631,1.626,19.24,1111122 
SCCF RECON,ioos:station:SCCF:11:1,2013-08-09T14:00:00Z,26.4679,-82.0631,1.697,20.12,1111122 
SCCF RECON,ioos:station:SCCF:11:1,2013-08-09T15:00:00Z,26.4679,-82.0631,1.848,22.01,1111122 
SCCF RECON,ioos:station:SCCF:11:1,2013-08-09T16:00:00Z,26.4679,-82.0631,2.02,17.41,1111122 
SCCF RECON,ioos:station:SCCF:11:1,2013-08-09T17:00:00Z,26.4679,-82.0631,2.13,20.21,1111122 
SCCF RECON,ioos:station:SCCF:11:1,2013-08-09T18:00:00Z,26.4679,-82.0631,2.21,23.69,1111122 
SCCF RECON,ioos:station:SCCF:11:1,2013-08-09T19:00:00Z,26.4679,-82.0631,2.28,26.01,1111122 
SCCF RECON,ioos:station:SCCF:11:1,2013-08-09T20:00:00Z,26.4679,-82.0631,2.19,21.3,1111122 
SCCF RECON,ioos:station:SCCF:11:1,2013-08-09T21:00:00Z,26.4679,-82.0631,2.084,21.75,1111122 
SCCF RECON,ioos:station:SCCF:11:1,2013-08-09T22:00:00Z,26.4679,-82.0631,1.95,19.56,1111122 
SCCF RECON,ioos:station:SCCF:11:1,2013-08-09T23:00:00Z,26.4679,-82.0631,1.796,19.42,1111122 
SCCF RECON,ioos:station:SCCF:11:1,2013-08-10T00:00:00Z,26.4679,-82.0631,1.7,19.38,1111122 
SCCF RECON,ioos:station:SCCF:11:1,2013-08-10T01:00:00Z,26.4679,-82.0631,1.59,19.57,1111122 
SCCF RECON,ioos:station:SCCF:11:1,2013-08-10T02:00:00Z,26.4679,-82.0631,1.533,19.51,1111122 
SCCF RECON,ioos:station:SCCF:11:1,2013-08-10T03:00:00Z,26.4679,-82.0631,1.59,20.01,1111122 
SCCF RECON,ioos:station:SCCF:11:1,2013-08-10T04:00:00Z,26.4679,-82.0631,1.781,21.4,1111122 
SCCF RECON,ioos:station:SCCF:11:1,2013-08-10T05:00:00Z,26.4679,-82.0631,1.9,15.42,1111122 
SCCF RECON,ioos:station:SCCF:11:1,2013-08-10T06:00:00Z,26.4679,-82.0631,2.05,16.85,1111122 
SCCF RECON,ioos:station:SCCF:11:1,2013-08-10T07:00:00Z,26.4679,-82.0631,2.13,18.69,1111122 
SCCF RECON,ioos:station:SCCF:11:1,2013-08-10T08:00:00Z,26.4679,-82.0631,2.17,21.21,1111122 
SCCF RECON,ioos:station:SCCF:11:1,2013-08-10T09:00:00Z,26.4679,-82.0631,2.12,21.75,1111122 
SCCF RECON,ioos:station:SCCF:11:1,2013-08-10T10:00:00Z,26.4679,-82.0631,2.0,18.64,1111122 
SCCF RECON,ioos:station:SCCF:11:1,2013-08-10T11:00:00Z,26.4679,-82.0631,1.835,19.14,1111122 
SCCF RECON,ioos:station:SCCF:11:1,2013-08-10T12:00:00Z,26.4679,-82.0631,1.72,19.26,1111122 
SCCF RECON,ioos:station:SCCF:11:1,2013-08-10T13:00:00Z,26.4679,-82.0631,1.67,19.13,1111122 
SCCF RECON,ioos:station:SCCF:11:1,2013-08-10T14:00:00Z,26.4679,-82.0631,1.63,19.25,1111122 
SCCF RECON,ioos:station:SCCF:11:1,2013-08-10T15:00:00Z,26.4679,-82.0631,1.716,19.75,1111122 
SCCF RECON,ioos:station:SCCF:11:1,2013-08-10T16:00:00Z,26.4679,-82.0631,1.85,19.67,1111122 
SCCF RECON,ioos:station:SCCF:11:1,2013-08-10T17:00:00Z,26.4679,-82.0631,1.962,18.21,1111122 
SCCF RECON,ioos:station:SCCF:11:1,2013-08-10T18:00:00Z,26.4679,-82.0631,2.02,18.33,1111122 
SCCF RECON,ioos:station:SCCF:11:1,2013-08-10T19:00:00Z,26.4679,-82.0631,2.09,20.58,1111122 
SCCF RECON,ioos:station:SCCF:11:1,2013-08-10T20:00:00Z,26.4679,-82.0631,2.17,22.18,1111122 
SCCF RECON,ioos:station:SCCF:11:1,2013-08-10T21:00:00Z,26.4679,-82.0631,2.15,23.08,1111122 
SCCF RECON,ioos:station:SCCF:11:1,2013-08-10T22:00:00Z,26.4679,-82.0631,2.04,19.7,1111122 
SCCF RECON,ioos:station:SCCF:11:1,2013-08-10T23:00:00Z,26.4679,-82.0631,1.9,19.25,1111122 
SCCF RECON,ioos:station:SCCF:11:1,2013-08-11T00:00:00Z,26.4679,-82.0631,1.77,19.18,1111122 
SCCF RECON,ioos:station:SCCF:11:1,2013-08-11T01:00:00Z,26.4679,-82.0631,1.68,19.16,1111122 
SCCF RECON,ioos:station:SCCF:11:1,2013-08-11T02:00:00Z,26.4679,-82.0631,1.58,19.21,1111122 
SCCF RECON,ioos:station:SCCF:11:1,2013-08-11T03:00:00Z,26.4679,-82.0631,1.58,19.66,1111122 
SCCF RECON,ioos:station:SCCF:11:1,2013-08-11T04:00:00Z,26.4679,-82.0631,1.68,20.49,1111122 
SCCF RECON,ioos:station:SCCF:11:1,2013-08-11T05:00:00Z,26.4679,-82.0631,1.865,18.71,1111122 
SCCF RECON,ioos:station:SCCF:11:1,2013-08-11T06:00:00Z,26.4679,-82.0631,2.01,17.56,1111122 
SCCF RECON,ioos:station:SCCF:11:1,2013-08-11T07:00:00Z,26.4679,-82.0631,2.08,19.53,1111122 
SCCF RECON,ioos:station:SCCF:11:1,2013-08-11T08:00:00Z,26.4679,-82.0631,2.11,20.25,1111122 
SCCF RECON,ioos:station:SCCF:11:1,2013-08-11T09:00:00Z,26.4679,-82.0631,2.07,21.44,1111122 
SCCF RECON,ioos:station:SCCF:11:1,2013-08-11T10:00:00Z,26.4679,-82.0631,1.99,18.94,1111122 
SCCF RECON,ioos:station:SCCF:11:1,2013-08-11T11:00:00Z,26.4679,-82.0631,1.895,18.69,1111122 
SCCF RECON,ioos:station:SCCF:11:1,2013-08-11T12:00:00Z,26.4679,-82.0631,1.78,19.11,1111122 
SCCF RECON,ioos:station:SCCF:11:1,2013-08-11T13:00:00Z,26.4679,-82.0631,1.69,19.2,1111122 
SCCF RECON,ioos:station:SCCF:11:1,2013-08-11T14:00:00Z,26.4679,-82.0631,1.6,19.17,1111122 
SCCF RECON,ioos:station:SCCF:11:1,2013-08-11T15:00:00Z,26.4679,-82.0631,1.58,19.24,1111122 
SCCF RECON,ioos:station:SCCF:11:1,2013-08-11T16:00:00Z,26.4679,-82.0631,1.64,19.57,1111122 
SCCF RECON,ioos:station:SCCF:11:1,2013-08-11T17:00:00Z,26.4679,-82.0631,1.762,19.2,1111122 
SCCF RECON,ioos:station:SCCF:11:1,2013-08-11T18:00:00Z,26.4679,-82.0631,1.895,17.13,1111122 